CW4114 Weather Reports


time (UTC)temp
F
wind
direction
speed
knots
gust
knots
rain 1hr
in
rain 24hr
in
rain mn
in
humidity
%
barometer
mb
20260510045226 42 310 7.8 13.0 0.00 0.00 0.00 62 1007.7
20260510044727 42 306 4.3 13.0 0.00 0.00 0.00 62 1007.6
20260510043722 42 316 3.5 13.0 0.00 0.00 0.00 62 1007.5
20260510043221 42 326 5.2 13.0 0.00 0.00 0.00 62 1007.4
20260510042720 42 282 7.0 13.0 0.00 0.00 0.00 62 1007.4
20260510042220 42 283 3.5 11.3 0.00 0.00 0.00 62 1007.4
20260510041719 42 296 3.5 12.2 0.00 0.00 0.00 62 1007.4
20260510041221 42 329 3.5 13.9 0.00 0.00 0.00 62 1007.2
20260510040717 42 314 4.3 13.9 0.00 0.00 0.00 62 1007.1
20260510040220 42 49 4.3 14.8 0.00 0.00 0.00 60 1007.0
20260510035711 42 354 7.8 16.5 0.00 0.00 0.00 61 1007.0
20260510035214 42 309 7.8 16.5 0.00 0.00 0.00 62 1007.0
20260510034710 42 348 5.2 11.3 0.00 0.00 0.00 63 1007.1
20260510034211 42 310 5.2 12.2 0.00 0.00 0.00 65 1007.0
20260510033711 42 272 2.6 12.2 0.00 0.00 0.00 66 1007.1
20260510033209 42 296 3.5 7.8 0.00 0.00 0.00 67 1007.0
20260510032708 42 293 1.7 6.1 0.00 0.00 0.00 67 1007.0
20260510032208 43 292 3.5 6.1 0.00 0.00 0.00 67 1006.9
20260510031707 43 289 1.7 7.8 0.00 0.00 0.00 66 1006.9
20260510031206 43 293 3.5 7.8 0.00 0.00 0.00 66 1007.0
20260510030705 43 316 5.2 9.6 0.00 0.00 0.00 65 1006.9
20260510030204 44 329 1.7 13.9 0.00 0.00 0.00 64 1006.9
20260510025704 44 344 3.5 13.9 0.00 0.00 0.00 64 1006.9
20260510025203 44 333 3.5 10.4 0.00 0.00 0.00 64 1006.9
20260510024706 44 305 4.3 7.8 0.00 0.00 0.00 63 1006.9
20260510024206 44 7 2.6 6.1 0.00 0.00 0.00 63 1006.8
20260510023705 44 292 2.6 6.1 0.00 0.00 0.00 63 1006.8
20260510023203 44 289 2.6 8.7 0.00 0.00 0.00 63 1006.7
20260510022703 44 358 3.5 9.6 0.00 0.00 0.00 63 1006.5
20260510022203 44 302 3.5 9.6 0.00 0.00 0.00 63 1006.5
20260510021700 44 333 3.5 10.4 0.00 0.00 0.00 64 1006.5
20260510021159 44 306 3.5 10.4 0.00 0.00 0.00 65 1006.3
20260510020923 44 319 2.6 7.8 0.00 0.00 0.00 65 1006.2
20260510020445 45 299 3.5 11.3 0.00 0.00 0.00 65 1006.0
20260510015633 45 306 5.2 11.3 0.00 0.00 0.00 65 1005.9
20260510015404 45 348 3.5 11.3 0.00 0.00 0.00 65 1005.8
20260510014634 45 323 4.3 10.4 0.00 0.00 0.00 65 1005.6
20260510014133 45 310 3.5 15.6 0.00 0.00 0.00 64 1005.6
20260510013637 45 289 6.1 15.6 0.00 0.00 0.00 64 1005.5
20260510013132 45 283 5.2 14.8 0.00 0.00 0.00 64 1005.4
20260510012633 45 330 7.0 14.8 0.00 0.00 0.00 64 1005.2
20260510012132 45 358 3.5 13.0 0.00 0.00 0.00 64 1005.1
20260510011634 45 343 7.0 13.0 0.00 0.00 0.00 64 1005.0
20260510011135 46 347 4.3 11.3 0.00 0.00 0.00 65 1005.0
20260510010631 46 11 4.3 12.2 0.00 0.00 0.00 65 1005.0
20260510010133 46 300 7.0 15.6 0.00 0.00 0.00 65 1004.9
20260510005553 46 302 5.2 15.6 0.00 0.00 0.00 65 1004.9
20260510005053 46 319 7.0 13.9 0.00 0.00 0.00 66 1004.8
20260510004822 46 326 5.2 16.5 0.00 0.00 0.00 66 1004.7
20260510004054 46 307 7.0 16.5 0.00 0.00 0.00 66 1004.7
20260510003553 46 331 4.3 16.5 0.00 0.00 0.00 67 1004.4
20260510003323 47 317 6.1 16.5 0.00 0.00 0.00 66 1004.4
20260510002554 47 343 7.0 13.0 0.00 0.00 0.00 66 1004.2
20260510002053 47 7 5.2 13.9 0.00 0.00 0.00 66 1004.0
20260510001552 47 348 6.1 13.9 0.00 0.00 0.00 66 1003.9
20260510001052 47 330 7.0 13.9 0.00 0.00 0.00 65 1003.8
20260510000551 47 341 6.1 17.4 0.00 0.00 0.00 65 1003.5
20260510000053 47 337 7.8 20.0 0.00 0.00 0.00 64 1003.3
20260509235738 47 28 6.1 20.0 0.00 0.00 0.00 65 1003.2
20260509235005 47 327 7.0 15.6 0.00 0.00 0.00 65 1003.1
20260509234736 48 314 7.8 18.2 0.00 0.00 0.00 64 1003.0
20260509234005 49 341 6.1 18.2 0.00 0.00 0.00 62 1002.8
20260509233505 49 350 7.8 23.5 0.00 0.00 0.00 60 1002.5
20260509233238 50 330 7.0 23.5 0.00 0.00 0.00 57 1002.5
20260509232505 50 307 7.8 15.6 0.00 0.00 0.00 54 1002.4
20260509232005 51 336 5.2 17.4 0.00 0.00 0.00 51 1002.3
20260509231735 52 2 7.8 19.1 0.00 0.00 0.00 46 1002.1
20260509231009 53 343 5.2 19.1 0.00 0.00 0.00 43 1002.0
20260509230508 53 312 7.8 19.1 0.00 0.00 0.00 40 1001.9
20260509230232 54 351 5.2 19.1 0.00 0.00 0.00 40 1001.7
20260509225459 54 340 6.1 20.9 0.00 0.00 0.00 39 1001.6
20260509224728 54 283 9.6 22.6 0.00 0.00 0.00 39 1001.3
20260509223959 54 331 8.7 20.9 0.00 0.00 0.00 38 1001.3
20260509223458 55 358 7.8 16.5 0.00 0.00 0.00 37 1001.4
20260509223226 55 289 6.1 20.9 0.00 0.00 0.00 37 1001.0
20260509222505 56 306 7.8 20.9 0.00 0.00 0.00 36 1001.0
20260509221955 56 305 6.1 19.1 0.00 0.00 0.00 37 1000.9
20260509221454 55 314 9.6 19.1 0.00 0.00 0.00 37 1000.8
20260509220952 55 312 7.8 19.1 0.00 0.00 0.00 39 1000.8
20260509220721 55 257 10.4 19.1 0.00 0.00 0.00 39 1000.5
20260509215951 55 298 7.8 19.1 0.00 0.00 0.00 40 1000.4
20260509215449 55 4 4.3 16.5 0.00 0.00 0.00 41 1000.3
20260509214446 55 299 7.0 14.8 0.00 0.00 0.00 40 1000.2
20260509213946 55 350 3.5 17.4 0.00 0.00 0.00 40 1000.1
20260509212943 55 327 10.4 20.0 0.00 0.00 0.00 40 999.9
20260509212710 56 317 7.0 19.1 0.00 0.00 0.00 41 999.8
20260509211942 56 305 7.8 22.6 0.00 0.00 0.00 41 999.6
20260509211442 56 312 8.7 22.6 0.00 0.00 0.00 41 999.6
20260509210942 58 314 7.8 19.1 0.00 0.00 0.00 36 999.4
20260509210441 58 286 6.1 16.5 0.00 0.00 0.00 35 999.3
20260509205942 58 324 7.8 16.5 0.00 0.00 0.00 36 999.0
20260509205436 57 51 7.0 14.8 0.00 0.00 0.00 39 999.1
20260509204934 56 348 7.0 18.2 0.00 0.00 0.00 40 998.9
20260509204434 56 327 7.8 23.5 0.00 0.00 0.00 41 998.7
20260509203935 55 1 4.3 23.5 0.00 0.00 0.00 44 998.5
20260509203436 54 9 8.7 18.2 0.00 0.00 0.00 43 998.5
20260509203210 55 24 6.1 18.2 0.00 0.00 0.00 42 998.6
20260509202437 55 331 7.8 16.5 0.00 0.00 0.00 41 998.4
20260509202204 55 345 7.0 15.6 0.00 0.00 0.00 41 998.4
20260509201433 55 1 8.7 15.6 0.00 0.00 0.00 41 998.1
20260509200933 56 8 7.0 17.4 0.00 0.00 0.00 40 997.9
20260509200433 59 305 7.0 18.2 0.00 0.00 0.00 37 997.8
20260509195932 59 330 6.1 18.2 0.00 0.00 0.00 37 997.8
20260509195701 60 307 5.2 18.2 0.00 0.00 0.00 41 997.7
20260509194934 59 343 7.0 18.2 0.00 0.00 0.00 45 997.5
20260509194428 58 8 7.8 17.4 0.00 0.00 0.00 45 997.4
20260509194152 59 307 9.6 18.2 0.00 0.00 0.00 44 997.4
20260509193422 59 307 8.7 18.2 0.00 0.00 0.00 43 997.2
20260509192918 60 254 5.2 18.2 0.00 0.00 0.00 44 997.1
20260509192418 61 312 7.8 18.2 0.00 0.00 0.00 43 997.1
20260509191921 62 274 9.6 16.5 0.00 0.00 0.00 45 997.0
20260509190919 61 324 8.7 15.6 0.00 0.00 0.00 47 996.9
20260509190647 60 353 7.0 18.2 0.00 0.00 0.00 48 996.9
20260509185916 59 258 9.6 18.2 0.00 0.00 0.00 46 997.0
20260509185419 59 278 7.8 23.5 0.00 0.00 0.00 45 997.0
20260509184915 59 283 14.8 23.5 0.00 0.00 0.00 45 996.8
20260509184649 59 283 12.2 23.5 0.00 0.00 0.00 46 996.8
20260509183915 60 271 9.6 23.5 0.00 0.00 0.00 48 996.7
20260509183412 60 302 7.8 22.6 0.00 0.00 0.00 48 996.5
20260509183144 60 261 7.0 16.5 0.00 0.00 0.00 49 996.3
20260509182641 60 293 9.6 19.1 0.00 0.00 0.00 50 996.3
20260509182136 60 296 9.6 19.1 0.00 0.00 0.00 51 996.3
20260509181410 59 316 7.0 19.1 0.00 0.00 0.00 55 996.2
20260509180910 58 272 13.0 19.1 0.00 0.00 0.00 55 996.0
20260509180410 57 269 7.8 20.0 0.00 0.00 0.00 60 995.7
20260509175407 50 348 3.5 9.6 0.00 0.00 0.00 75 995.5
20260509175141 49 357 1.7 7.8 0.00 0.00 0.00 77 995.4
20260509174640 49 355 4.3 10.4 0.00 0.00 0.00 77 995.5
20260509174135 48 348 5.2 10.4 0.00 0.00 0.00 78 995.4
20260509173406 48 350 3.5 10.4 0.00 0.00 0.00 75 995.5
20260509173135 48 351 4.3 11.3 0.00 0.00 0.00 76 995.5
20260509172407 48 337 3.5 11.3 0.00 0.00 0.00 75 995.4
20260509172135 48 337 5.2 9.6 0.00 0.00 0.00 74 995.4
20260509171408 49 25 4.3 9.6 0.00 0.00 0.00 74 995.4
20260509170906 49 319 4.3 8.7 0.00 0.00 0.00 73 995.4
20260509170406 49 316 3.5 9.6 0.00 0.00 0.00 72 995.5
20260509165907 50 355 5.2 9.6 0.00 0.00 0.00 69 995.5
20260509165404 52 7 5.2 9.6 0.00 0.00 0.00 66 995.5
20260509164904 55 338 3.5 8.7 0.00 0.00 0.00 61 995.4
20260509164404 58 313 2.6 13.9 0.00 0.00 0.00 57 995.3
20260509163904 60 358 5.2 15.6 0.00 0.00 0.00 62 995.3
20260509163656 60 231 8.7 15.6 0.00 0.00 0.00 62 995.2
20260509162950 60 257 7.8 14.8 0.00 0.00 0.00 62 995.2
20260509162404 60 272 8.7 15.6 0.00 0.00 0.00 62 995.0
20260509161906 60 255 7.0 15.6 0.00 0.00 0.00 62 995.2
20260509161403 60 262 4.3 15.6 0.00 0.00 0.00 62 995.2
20260509160925 60 282 6.1 11.3 0.00 0.00 0.00 63 995.2
20260509160447 60 240 5.2 12.2 0.00 0.00 0.00 64 995.1
20260509155903 60 275 6.1 12.2 0.00 0.00 0.00 64 995.1
20260509155402 60 219 3.5 10.4 0.00 0.00 0.00 65 995.1
20260509154903 59 231 3.5 10.4 0.00 0.00 0.00 65 995.1
20260509154402 60 231 5.2 10.4 0.00 0.00 0.00 65 995.1
20260509153859 60 210 5.2 13.0 0.00 0.00 0.00 65 995.1
20260509153358 60 224 6.1 13.0 0.00 0.00 0.00 64 995.1
20260509152358 60 207 3.5 13.0 0.00 0.00 0.00 63 995.0
20260509151857 60 216 9.6 13.0 0.00 0.00 0.00 64 995.1
20260509151356 60 233 5.2 13.9 0.00 0.00 0.00 64 995.1
20260509150859 60 238 7.0 13.9 0.00 0.00 0.00 65 995.1
20260509150355 60 237 3.5 10.4 0.00 0.00 0.00 65 995.0
20260509145856 59 228 3.5 12.2 0.00 0.00 0.00 64 995.1
20260509145403 59 247 7.0 13.0 0.00 0.00 0.00 64 995.1
20260509144852 60 244 5.2 15.6 0.00 0.00 0.00 63 995.2
20260509144656 60 213 7.8 15.6 0.00 0.00 0.00 63 995.1
20260509143934 60 258 7.0 13.0 0.00 0.00 0.00 64 995.0
20260509143353 60 213 6.1 13.0 0.00 0.00 0.00 64 994.9
20260509142853 60 200 7.0 13.0 0.00 0.00 0.00 64 994.8
20260509142349 59 241 7.8 14.8 0.00 0.00 0.00 65 994.9
20260509141848 59 234 7.0 14.8 0.00 0.00 0.00 66 995.1
20260509141346 58 236 7.8 16.5 0.00 0.00 0.00 65 995.3
20260509140847 59 279 7.8 18.2 0.00 0.00 0.00 65 995.2
20260509140346 59 236 10.4 18.2 0.00 0.00 0.00 64 994.8
20260509135846 59 185 7.0 13.0 0.00 0.00 0.00 65 994.7
20260509135400 59 255 6.1 13.0 0.00 0.00 0.00 66 994.9
20260509134845 58 244 7.0 13.0 0.00 0.00 0.00 67 995.0
20260509134407 57 158 5.2 12.2 0.00 0.00 0.00 66 995.0
20260509133845 56 223 6.1 11.3 0.00 0.00 0.00 66 995.1
20260509133343 56 183 5.2 13.9 0.00 0.00 0.00 65 995.1
20260509132843 56 233 7.8 13.9 0.00 0.00 0.00 64 995.3
20260509132354 56 197 6.1 13.0 0.00 0.00 0.00 63 995.3
20260509131842 56 188 7.0 16.5 0.00 0.00 0.00 62 995.3
20260509131341 56 217 9.6 16.5 0.00 0.00 0.00 62 995.4
20260509130843 55 252 6.1 15.6 0.00 0.00 0.00 61 995.2
20260509130342 55 219 5.2 14.8 0.00 0.00 0.00 60 995.4
20260509125842 54 204 7.8 14.8 0.00 0.00 0.00 59 995.4
20260509125341 54 227 7.0 13.0 0.00 0.00 0.00 59 995.5
20260509124841 54 224 6.1 13.0 0.00 0.00 0.00 58 995.6
20260509124604 54 220 6.1 13.9 0.00 0.00 0.00 58 995.5
20260509123838 53 204 7.8 13.9 0.00 0.00 0.00 58 995.5
20260509123335 53 216 7.0 14.8 0.00 0.00 0.00 57 995.6
20260509122833 53 241 4.3 14.8 0.00 0.00 0.00 57 995.8
20260509122600 53 207 8.7 14.8 0.00 0.00 0.00 56 995.9
20260509121833 53 231 6.1 13.0 0.00 0.00 0.00 56 995.9
20260509121332 53 214 5.2 12.2 0.00 0.00 0.00 56 996.1
20260509121057 53 175 7.8 13.0 0.00 0.00 0.00 56 996.2
20260509120331 52 228 7.8 13.0 0.00 0.00 0.00 55 996.2
20260509120056 52 214 6.1 13.0 0.00 0.00 0.00 55 996.0
20260509115327 52 219 6.1 13.0 0.00 0.00 0.00 54 996.1
20260509114824 52 213 7.0 12.2 0.00 0.00 0.00 54 996.1
20260509114549 52 154 5.2 15.6 0.00 0.00 0.00 53 996.5
20260509113824 52 204 6.1 15.6 0.00 0.00 0.00 53 996.7
20260509113324 51 193 6.1 13.9 0.00 0.00 0.00 53 996.7
20260509112825 51 190 7.8 13.9 0.00 0.00 0.00 53 996.6
20260509112551 51 220 6.1 13.9 0.00 0.00 0.00 53 996.7
20260509111824 51 202 7.8 13.0 0.00 0.00 0.00 52 996.7
20260509111326 51 213 7.0 12.2 0.00 0.00 0.00 52 996.9
20260509110821 51 179 6.1 13.9 0.00 0.00 0.00 52 996.8
20260509110321 51 186 5.2 13.9 0.00 0.00 0.00 53 996.9
20260509105821 50 197 7.0 13.0 0.00 0.00 0.00 53 997.0
20260509105321 50 204 5.2 13.0 0.00 0.00 0.00 53 997.1
20260509104821 50 202 5.2 12.2 0.00 0.00 0.00 54 997.2
20260509104546 49 203 7.0 12.2 0.00 0.00 0.00 54 997.2
20260509103820 49 220 4.3 11.3 0.00 0.00 0.00 54 997.2
20260509103321 49 220 4.3 11.3 0.00 0.00 0.00 53 997.2
20260509102820 49 209 7.0 11.3 0.00 0.00 0.00 53 997.4
20260509102319 49 210 6.1 11.3 0.00 0.00 0.00 53 997.5
20260509101819 49 200 6.1 11.3 0.00 0.00 0.00 53 997.6
20260509101545 49 216 6.1 12.2 0.00 0.00 0.00 54 997.6
20260509100817 49 212 7.0 12.2 0.00 0.00 0.00 53 997.6
20260509100539 49 221 5.2 13.9 0.00 0.00 0.00 53 997.7
20260509095815 49 213 7.0 13.9 0.00 0.00 0.00 53 997.7
20260509095315 49 216 7.0 13.9 0.00 0.00 0.00 54 997.8
20260509094815 49 203 7.0 12.2 0.00 0.00 0.00 54 997.8
20260509094316 49 217 6.1 12.2 0.00 0.00 0.00 54 997.8
20260509093811 49 236 7.0 12.2 0.00 0.00 0.00 54 998.1
20260509093311 49 230 6.1 11.3 0.00 0.00 0.00 53 998.1
20260509092811 49 219 7.8 13.0 0.00 0.00 0.00 53 998.2
20260509092313 49 230 6.1 13.0 0.00 0.00 0.00 53 998.3
20260509091810 49 227 5.2 10.4 0.00 0.00 0.00 53 998.2
20260509090810 50 203 6.1 11.3 0.00 0.00 0.00 52 998.3
20260509090535 50 159 5.2 12.2 0.00 0.00 0.00 52 998.3
20260509090043 50 212 6.1 12.2 0.00 0.00 0.00 52 998.4
20260509085310 50 210 6.1 11.3 0.00 0.00 0.00 53 998.4
20260509084810 50 200 6.1 8.7 0.00 0.00 0.00 53 998.5
20260509084310 50 212 4.3 8.7 0.00 0.00 0.00 53 998.7
20260509083809 50 236 5.2 9.6 0.00 0.00 0.00 53 998.8
20260509083310 50 204 4.3 9.6 0.00 0.00 0.00 53 998.8
20260509082812 49 228 4.3 9.6 0.00 0.00 0.00 54 999.0
20260509082309 50 224 4.3 10.4 0.00 0.00 0.00 54 999.1
20260509082050 50 200 4.3 12.2 0.00 0.00 0.00 54 999.1
20260509080808 50 213 3.5 7.8 0.00 0.00 0.00 54 999.2
20260509080309 50 238 2.6 9.6 0.00 0.00 0.00 55 999.3
20260509075809 49 199 5.2 9.6 0.00 0.00 0.00 55 999.4
20260509075308 49 175 3.5 10.4 0.00 0.00 0.00 56 999.4
20260509074822 49 207 5.2 10.4 0.00 0.00 0.00 57 999.6
20260509074307 49 212 5.2 8.7 0.00 0.00 0.00 58 999.6
20260509074038 48 206 3.5 7.8 0.00 0.00 0.00 59 999.7
20260509073308 48 213 4.3 7.8 0.00 0.00 0.00 59 999.7
20260509072807 48 207 3.5 8.7 0.00 0.00 0.00 60 999.8
20260509072309 48 204 5.2 8.7 0.00 0.00 0.00 61 1000.1
20260509071818 48 214 2.6 8.7 0.00 0.00 0.00 61 1000.2
20260509071308 47 240 3.5 8.7 0.00 0.00 0.00 61 1000.2
20260509070807 47 258 1.7 5.2 0.00 0.00 0.00 61 1000.3
20260509070307 47 200 4.3 7.8 0.00 0.00 0.00 63 1000.4
20260509065807 47 230 3.5 7.8 0.00 0.00 0.00 64 1000.3
20260509065306 46 189 2.6 7.8 0.00 0.00 0.00 67 1000.4
20260509064815 46 196 2.6 5.2 0.00 0.00 0.00 68 1000.4
20260509064306 46 158 1.7 3.5 0.00 0.00 0.00 69 1000.4
20260509063807 46 138 0.9 3.5 0.00 0.00 0.00 69 1000.6
20260509063307 46 161 0.9 4.3 0.00 0.00 0.00 70 1000.8
20260509062807 46 151 1.7 4.3 0.00 0.00 0.00 70 1000.9
20260509062306 46 140 1.7 3.5 0.00 0.00 0.00 69 1001.0
20260509061805 46 126 1.7 3.5 0.00 0.00 0.00 70 1001.3
20260509061307 46 145 1.7 3.5 0.00 0.00 0.00 70 1001.4
20260509061037 46 178 1.7 3.5 0.00 0.00 0.00 70 1001.5
20260509060305 46 185 1.7 3.5 0.00 0.00 0.00 70 1001.4
20260509055805 45 155 1.7 3.5 0.00 0.00 0.00 70 1001.5
20260509055307 45 162 1.7 2.6 0.00 0.00 0.00 70 1001.6
20260509054805 46 154 0.9 2.6 0.00 0.00 0.00 71 1001.7
20260509054306 46 162 1.7 2.6 0.00 0.00 0.00 70 1001.8
20260509054032 46 169 0.9 2.6 0.00 0.00 0.00 70 1001.8
20260509053304 46 166 0.9 2.6 0.00 0.00 0.00 69 1001.9
20260509052804 46 137 0.0 1.7 0.00 0.00 0.00 69 1001.9
20260509052307 47 135 0.9 1.7 0.00 0.00 0.00 68 1002.0
20260509051802 47 168 0.9 1.7 0.00 0.00 0.00 65 1002.1
20260509051302 47 193 0.9 1.7 0.00 0.00 0.00 64 1002.1
20260509050802 47 202 0.0 2.6 0.00 0.00 0.00 64 1002.1
20260509050302 47 207 0.0 4.3 0.00 0.00 0.00 63 1002.1
20260509045802 47 202 1.7 4.3 0.00 0.00 0.00 63 1002.2